• In Hungary
  • List of Countries
  • For 7 days
  • Water Temperature
  • Satellite Maps
  • Weather Map
  • News
  • Weather Widgets
  • user-avatar
    Login

    Hourly Weather Kato Lefkara

    Today, 22 January, Monday

    Time Temperature Precipitation Wind Pressure Humidity
    00:00 +10°C° 0 mm 4 mps 731 mmHg 83%
    01:00 +10°C° 0 mm 4 mps 731 mmHg 84%
    02:00 +10°C° 0 mm 4 mps 730 mmHg 86%
    03:00 +10°C° 0 mm 4 mps 730 mmHg 86%
    04:00 +10°C° 0 mm 4 mps 729 mmHg 86%
    05:00 +10°C° 0 mm 4 mps 729 mmHg 86%
    06:00 +11°C° 0.1 mm 4 mps 729 mmHg 84%
    07:00 +11°C° 0.1 mm 4 mps 728 mmHg 83%
    08:00 +12°C° 0.1 mm 5 mps 728 mmHg 81%
    09:00 +13°C° 0.1 mm 5 mps 728 mmHg 74%
    10:00 +14°C° 0.1 mm 6 mps 729 mmHg 67%
    11:00 +16°C° 0.1 mm 6 mps 729 mmHg 59%
    12:00 +16°C° 0.3 mm 6 mps 729 mmHg 61%
    13:00 +16°C° 0.3 mm 6 mps 728 mmHg 63%
    14:00 +15°C° 0.3 mm 7 mps 728 mmHg 64%
    15:00 +15°C° 0.9 mm 7 mps 728 mmHg 70%
    16:00 +14°C° 0.9 mm 6 mps 728 mmHg 76%
    17:00 +13°C° 0.9 mm 6 mps 728 mmHg 81%
    18:00 +12°C° 2.3 mm 7 mps 727 mmHg 83%
    19:00 +12°C° 2.3 mm 8 mps 727 mmHg 85%
    20:00 +12°C° 2.3 mm 9 mps 727 mmHg 87%
    21:00 +12°C° 1.7 mm 9 mps 726 mmHg 87%
    22:00 +12°C° 1.7 mm 10 mps 726 mmHg 86%
    23:00 +12°C° 1.7 mm 10 mps 726 mmHg 86%

    Tomorrow, 23 January, Tuesday

    Time Temperature Precipitation Wind Pressure Humidity
    00:00 +11°C° 0.7 mm 9 mps 726 mmHg 83%
    01:00 +11°C° 0.7 mm 9 mps 726 mmHg 81%
    02:00 +10°C° 0.7 mm 8 mps 725 mmHg 79%
    03:00 +10°C° 0.2 mm 8 mps 725 mmHg 80%
    04:00 +10°C° 0.2 mm 8 mps 725 mmHg 81%
    05:00 +9°C° 0.2 mm 8 mps 725 mmHg 82%
    06:00 +10°C° 0.5 mm 7 mps 726 mmHg 83%
    07:00 +10°C° 0.5 mm 7 mps 726 mmHg 83%
    08:00 +10°C° 0.5 mm 7 mps 727 mmHg 83%
    09:00 +11°C° 0.3 mm 6 mps 727 mmHg 79%
    10:00 +13°C° 0.3 mm 6 mps 728 mmHg 74%
    11:00 +14°C° 0.3 mm 6 mps 729 mmHg 70%
    12:00 +14°C° 0.1 mm 6 mps 729 mmHg 70%
    13:00 +14°C° 0.1 mm 5 mps 729 mmHg 70%
    14:00 +14°C° 0.1 mm 5 mps 729 mmHg 70%
    15:00 +14°C° 0.1 mm 5 mps 729 mmHg 74%
    16:00 +13°C° 0.1 mm 5 mps 730 mmHg 78%
    17:00 +12°C° 0.1 mm 4 mps 730 mmHg 82%
    18:00 +12°C° 0.1 mm 4 mps 730 mmHg 83%
    19:00 +12°C° 0.1 mm 3 mps 731 mmHg 83%
    20:00 +13°C° 0.1 mm 2 mps 731 mmHg 84%
    21:00 +13°C° 0.2 mm 2 mps 731 mmHg 84%
    22:00 +13°C° 0.2 mm 2 mps 731 mmHg 83%
    23:00 +13°C° 0.2 mm 2 mps 732 mmHg 82%

    Day after tomorrow, 24 January, Wednesday

    Time Temperature Precipitation Wind Pressure Humidity
    00:00 +12°C° 0.3 mm 3 mps 732 mmHg 82%
    01:00 +11°C° 0.3 mm 3 mps 732 mmHg 82%
    02:00 +11°C° 0.3 mm 3 mps 732 mmHg 82%
    03:00 +11°C° 0.6 mm 3 mps 732 mmHg 83%
    04:00 +11°C° 0.6 mm 3 mps 732 mmHg 84%
    05:00 +11°C° 0.6 mm 3 mps 732 mmHg 85%
    06:00 +11°C° 0.9 mm 3 mps 732 mmHg 86%
    07:00 +11°C° 0.9 mm 3 mps 732 mmHg 87%
    08:00 +11°C° 0.9 mm 3 mps 733 mmHg 88%
    09:00 +11°C° 0.9 mm 3 mps 733 mmHg 88%
    10:00 +11°C° 0.9 mm 3 mps 733 mmHg 88%
    11:00 +11°C° 0.9 mm 3 mps 733 mmHg 89%
    12:00 +10°C° 0.9 mm 3 mps 733 mmHg 89%
    13:00 +10°C° 0.9 mm 4 mps 733 mmHg 89%
    14:00 +10°C° 0.9 mm 4 mps 732 mmHg 89%
    15:00 +8°C° 0.6 mm 4 mps 732 mmHg 88%
    16:00 +8°C° 0.6 mm 5 mps 732 mmHg 88%
    17:00 +8°C° 0.6 mm 5 mps 732 mmHg 87%
    18:00 +8°C° 0.9 mm 5 mps 732 mmHg 88%
    19:00 +8°C° 0.9 mm 5 mps 733 mmHg 88%
    20:00 +8°C° 0.9 mm 6 mps 733 mmHg 89%
    21:00 +8°C° 0.9 mm 6 mps 733 mmHg 89%
    22:00 +8°C° 0.9 mm 6 mps 733 mmHg 89%
    23:00 +8°C° 0.9 mm 6 mps 732 mmHg 89%

    25 January, Thursday

    Time Temperature Precipitation Wind Pressure Humidity
    00:00 +7°C° 0.7 mm 6 mps 732 mmHg 88%
    01:00 +7°C° 0.7 mm 6 mps 732 mmHg 87%
    02:00 +7°C° 0.7 mm 6 mps 732 mmHg 86%
    03:00 +7°C° 0.3 mm 6 mps 731 mmHg 85%
    04:00 +6°C° 0.3 mm 7 mps 731 mmHg 83%
    05:00 +5°C° 0.3 mm 7 mps 731 mmHg 81%
    06:00 +7°C° 0.1 mm 6 mps 731 mmHg 79%
    07:00 +7°C° 0.1 mm 6 mps 731 mmHg 77%
    08:00 +7°C° 0.1 mm 6 mps 732 mmHg 75%
    09:00 +7°C° 0.2 mm 6 mps 732 mmHg 71%
    10:00 +8°C° 0.2 mm 6 mps 732 mmHg 67%
    11:00 +8°C° 0.2 mm 6 mps 732 mmHg 63%
    12:00 +8°C° 0.1 mm 6 mps 732 mmHg 61%
    13:00 +9°C° 0.1 mm 6 mps 731 mmHg 59%
    14:00 +9°C° 0.1 mm 5 mps 731 mmHg 57%
    15:00 +8°C° 0 mm 5 mps 731 mmHg 58%
    16:00 +8°C° 0 mm 4 mps 731 mmHg 60%
    17:00 +7°C° 0 mm 4 mps 731 mmHg 62%
    18:00 +7°C° 0 mm 4 mps 731 mmHg 62%
    19:00 +6°C° 0 mm 4 mps 732 mmHg 63%
    20:00 +6°C° 0 mm 4 mps 732 mmHg 64%
    21:00 +5°C° 0.1 mm 4 mps 732 mmHg 64%
    22:00 +5°C° 0.1 mm 4 mps 732 mmHg 64%
    23:00 +5°C° 0.1 mm 4 mps 732 mmHg 64%

    26 January, Friday

    Time Temperature Precipitation Wind Pressure Humidity
    00:00 +5°C° 0.1 mm 4 mps 732 mmHg 64%
    01:00 +5°C° 0.1 mm 3 mps 732 mmHg 65%
    02:00 +5°C° 0.1 mm 3 mps 732 mmHg 65%
    03:00 +5°C° 0.1 mm 3 mps 732 mmHg 66%
    04:00 +5°C° 0.1 mm 3 mps 731 mmHg 66%
    05:00 +5°C° 0.1 mm 3 mps 731 mmHg 67%
    06:00 +5°C° 0 mm 3 mps 732 mmHg 66%
    07:00 +6°C° 0 mm 2 mps 732 mmHg 65%
    08:00 +6°C° 0 mm 2 mps 732 mmHg 65%
    09:00 +5°C° 0 mm 3 mps 732 mmHg 62%
    10:00 +7°C° 0 mm 3 mps 733 mmHg 59%
    11:00 +8°C° 0 mm 3 mps 733 mmHg 57%
    12:00 +8°C° 0 mm 3 mps 733 mmHg 56%
    13:00 +8°C° 0 mm 3 mps 733 mmHg 54%
    14:00 +8°C° 0 mm 3 mps 733 mmHg 53%
    15:00 +8°C° 0 mm 3 mps 733 mmHg 54%
    16:00 +7°C° 0 mm 3 mps 733 mmHg 55%
    17:00 +5°C° 0 mm 3 mps 733 mmHg 57%
    18:00 +5°C° 0 mm 3 mps 734 mmHg 57%
    19:00 +4°C° 0 mm 3 mps 734 mmHg 58%
    20:00 +5°C° 0 mm 2 mps 735 mmHg 59%
    21:00 +4°C° 0 mm 2 mps 735 mmHg 59%
    22:00 +4°C° 0 mm 2 mps 735 mmHg 60%
    23:00 +4°C° 0 mm 2 mps 735 mmHg 60%

    27 January, Saturday

    Time Temperature Precipitation Wind Pressure Humidity
    00:00 +4°C° 0 mm 2 mps 735 mmHg 61%
    01:00 +4°C° 0 mm 2 mps 735 mmHg 62%
    02:00 +4°C° 0 mm 2 mps 735 mmHg 63%
    03:00 +3°C° 0 mm 2 mps 735 mmHg 64%
    04:00 +3°C° 0 mm 2 mps 735 mmHg 65%
    05:00 +3°C° 0 mm 2 mps 735 mmHg 66%
    06:00 +4°C° 0 mm 2 mps 736 mmHg 64%
    07:00 +4°C° 0 mm 3 mps 736 mmHg 62%
    08:00 +5°C° 0 mm 3 mps 737 mmHg 60%
    09:00 +7°C° 0 mm 3 mps 737 mmHg 55%
    10:00 +8°C° 0 mm 3 mps 737 mmHg 50%
    11:00 +10°C° 0 mm 3 mps 738 mmHg 45%
    12:00 +10°C° 0 mm 3 mps 738 mmHg 43%
    13:00 +12°C° 0 mm 2 mps 738 mmHg 42%
    14:00 +12°C° 0 mm 2 mps 738 mmHg 40%
    15:00 +10°C° 0 mm 2 mps 738 mmHg 45%
    16:00 +9°C° 0 mm 2 mps 738 mmHg 49%
    17:00 +8°C° 0 mm 2 mps 738 mmHg 54%
    18:00 +7°C° 0 mm 2 mps 738 mmHg 56%
    19:00 +7°C° 0 mm 2 mps 738 mmHg 58%
    20:00 +6°C° 0 mm 2 mps 739 mmHg 60%
    21:00 +6°C° 0 mm 2 mps 739 mmHg 61%
    22:00 +6°C° 0 mm 2 mps 739 mmHg 61%
    23:00 +5°C° 0 mm 2 mps 739 mmHg 62%
    Show more